sat.trackr.live / text

‹ back to catalog

STARLINK-11608 [DTC]

NORAD 63275 · 2025-053L

PAYLOAD ACTIVE UNKNOWN

§ Identity

Operator
Country
US
Launch date
2025-03-15
Launch site
AFETR
Launch vehicle
Mass (kg)
RCS (m²)

Purposes: comms

External: N2YO · Heavens-Above · Gunter

§ Orbital elements

Epoch: 2026-09-20T09:28:13.243872Z

Period
91.67 min
Inclination
43.0006°
Eccentricity
0.0002826
Mean motion
15.70838844 rev/d
Perigee alt
354.6 km
Apogee alt
358.4 km
Semi-major
6,734.6 km
B*
1.1482e-3
RAAN
18.4228°
Arg perigee
289.2925°
Mean anomaly
70.7637°
Rev number
8,828

§ Raw data

STARLINK-11608 [DTC]1 63275U 25053L   26263.39459773  .00149563  00000+0  11482-2 0  99992 63275  43.0006  18.4228 0002826 289.2925  70.7637 15.70838844 88282

JSON: /api/v1/satellites/63275 · /tle

For live sub-satellite position, see the globe view (requires WebGL).

§ Visibility from observer

Set your observer location to see the next 7 days of passes ≥ 10°. The values pass through the URL so the page stays shareable.

No JS? Fill the form by hand. The geolocation button needs JavaScript.